STARLINK-5654, 55366

Orbit data source: Space-Track

STARLINK-5654, 55366 is a payload satellite owned by SpaceX/Seattle (US) in LEO that was launched on Thu, 26 Jan 2023 UTC via an FALCON 9 launch vehicle from the Air Force Eastern Test Range (AFETR). Payload-class satellites include a variety of spacecraft equipped with specific instruments for various scientific and technological missions. These include communications satellites like Starlink; space stations such as the ISS; scientific satellites like the Hubble; Earth observation satellites from companies like Planet Labs, Umbra, and HawkEye 360; GPS; miniature CubeSats for education and research; and military/defense satellites.

Loading next visibility...
Identifier
55366, 2023-013AM
Orbit
LEO
Country
Flag of USUS
Related business
Manufacturer
SpaceX/Seattle
Mission
Operational Commercial Communications
Bus & Motor
STARLINK, Unknown motor
Mass
305 kg wet, ~290 kg dry
Launch date (UTC)
2023-01-26 (3 years ago)
Launch vehicle
FALCON 9
Launch site
Air Force Eastern Test Range (AFETR)
Object type
Payload
Rocket body
Debris
Shape & HBR
Box + 1 Pan, 10.1 m
Radar Cross Section
13.562 m², Large (>1 m²)

Expand to show TLE details & history
Last TLE update: 2 days ago

TLE from 2 days ago
0 STARLINK-5654
1 55366U 23013AM  26171.06868204 -.00000457  00000-0 -70831-5 0  9997
2 55366  43.0034  70.2829 0001152 268.4483  91.6237 15.27579047187509
Epoch: 2026-06-20T01:38Z
TLE epoch observation values (Epoch: 2026-06-20T01:38:54.128Z)
Latitude
0.00001°
Longitude
137.26877°
Altitude
482.85 km
Speed
7.626 km/s
True Right ascension
04h 41m 07s
True Declination
0° 00' 00"
Sunlit
Object was in daylight at epoch
Visualization orbit readout
Latitude
Unknown
Longitude
Unknown
Altitude
Unknown
Speed
Unknown
Apparent Right ascension
Unknown
Apparent Declination
Unknown
Sunlit
N/A
Visualization observer readout
Local Sidereal Time
23:19:31
Azimuth
Unknown
Elevation
Unknown
Doppler factor
Unknown
Orbital elements
Apogee altitude
485.787 km
Perigee altitude
484.206 km
Semi-major axis
6,863.134 km
Eccentricity
0.00012
Inclination
43.0034°
RAAN
70.2829°
Arg. of periapsis
268.4483°
True anomaly
91.6369°
Mean anomaly
91.6237°
Eccentric anomaly
91.6303°
Mean motion
3.81733 °/min
Orbital period
94.31 mins
BSTAR
-0.0000070831
Loading maneuver chart data...
Computing Atmospheric mass density...
Loading historical data...
Loading historical data...
Loading historical data...
Loading historical data...
Loading historical data...
Loading historical data...
Loading historical data...

Documentation

Showing up to 5 results
|